When you browse on this site, cookies collect data to enhance your experience and personalize the content and advertising you see.
Visit our Privacy Policy to learn more. By continuing to use the site, you agree to this use of cookies and data.
  • In Sweden
  • List of Countries
  • For 7 days
  • Water Temperature
  • Satellite Maps
  • Weather Map
  • Weather Widgets
  • user-avatar
    Login

    Hourly Weather Szentendre

    Today, 19 November, Monday

    Time Temperature Precipitation Wind Pressure Humidity
    00:00 +3°C° 0 mm 2 mps 749 mmHg 64%
    01:00 +3°C° 0 mm 2 mps 749 mmHg 66%
    02:00 +3°C° 0.1 mm 2 mps 749 mmHg 67%
    03:00 +3°C° 0.1 mm 2 mps 749 mmHg 68%
    04:00 +2°C° 0.1 mm 2 mps 748 mmHg 69%
    05:00 +2°C° 0.2 mm 2 mps 748 mmHg 71%
    06:00 +2°C° 0.2 mm 2 mps 748 mmHg 73%
    07:00 +2°C° 0.2 mm 2 mps 748 mmHg 75%
    08:00 +2°C° 0.2 mm 2 mps 748 mmHg 75%
    09:00 +2°C° 0.2 mm 2 mps 748 mmHg 75%
    10:00 +2°C° 0.2 mm 2 mps 749 mmHg 75%
    11:00 +3°C° 0.1 mm 2 mps 749 mmHg 75%
    12:00 +3°C° 0.1 mm 2 mps 749 mmHg 74%
    13:00 +3°C° 0.1 mm 3 mps 749 mmHg 73%
    14:00 +4°C° 0 mm 2 mps 749 mmHg 74%
    15:00 +3°C° 0 mm 2 mps 749 mmHg 76%
    16:00 +3°C° 0 mm 2 mps 749 mmHg 77%
    17:00 +3°C° 0 mm 2 mps 749 mmHg 78%
    18:00 +3°C° 0 mm 2 mps 749 mmHg 79%
    19:00 +1°C° 0 mm 3 mps 750 mmHg 80%
    20:00 +1°C° 0 mm 3 mps 750 mmHg 80%
    21:00 +1°C° 0 mm 3 mps 750 mmHg 79%
    22:00 +1°C° 0 mm 3 mps 750 mmHg 79%
    23:00 +1°C° 0 mm 3 mps 750 mmHg 79%

    Tomorrow, 20 November, Tuesday

    Time Temperature Precipitation Wind Pressure Humidity
    00:00 0°C° 0 mm 4 mps 749 mmHg 78%
    01:00 0°C° 0 mm 4 mps 749 mmHg 78%
    02:00 +1°C° 0.1 mm 5 mps 749 mmHg 78%
    03:00 +1°C° 0.1 mm 5 mps 748 mmHg 77%
    04:00 +1°C° 0.1 mm 5 mps 748 mmHg 77%
    05:00 +1°C° 0.3 mm 6 mps 748 mmHg 76%
    06:00 +1°C° 0.3 mm 6 mps 747 mmHg 74%
    07:00 0°C° 0.3 mm 7 mps 747 mmHg 73%
    08:00 +2°C° 0.1 mm 7 mps 747 mmHg 72%
    09:00 +2°C° 0.1 mm 7 mps 746 mmHg 70%
    10:00 +2°C° 0.1 mm 7 mps 746 mmHg 69%
    11:00 +2°C° 0.5 mm 7 mps 746 mmHg 70%
    12:00 +3°C° 0.5 mm 6 mps 746 mmHg 70%
    13:00 +3°C° 0.5 mm 6 mps 746 mmHg 71%
    14:00 +3°C° 1.7 mm 6 mps 746 mmHg 75%
    15:00 +2°C° 1.7 mm 5 mps 746 mmHg 79%
    16:00 +2°C° 1.7 mm 5 mps 746 mmHg 82%
    17:00 +2°C° 0.1 mm 5 mps 746 mmHg 84%
    18:00 +2°C° 0.1 mm 5 mps 746 mmHg 85%
    19:00 +3°C° 0.1 mm 4 mps 746 mmHg 86%
    20:00 +4°C° 0.1 mm 4 mps 747 mmHg 87%
    21:00 +4°C° 0.1 mm 3 mps 747 mmHg 88%
    22:00 +4°C° 0.1 mm 3 mps 747 mmHg 90%
    23:00 +4°C° 0.1 mm 3 mps 747 mmHg 90%

    Day after tomorrow, 21 November, Wednesday

    Time Temperature Precipitation Wind Pressure Humidity
    00:00 +4°C° 0.1 mm 3 mps 747 mmHg 90%
    01:00 +4°C° 0.1 mm 3 mps 748 mmHg 91%
    02:00 +4°C° 0.2 mm 3 mps 748 mmHg 91%
    03:00 +5°C° 0.2 mm 2 mps 748 mmHg 91%
    04:00 +5°C° 0.2 mm 2 mps 748 mmHg 91%
    05:00 +5°C° 0.2 mm 2 mps 748 mmHg 91%
    06:00 +5°C° 0.2 mm 2 mps 748 mmHg 91%
    07:00 +5°C° 0.2 mm 2 mps 748 mmHg 91%
    08:00 +5°C° 0.1 mm 2 mps 749 mmHg 89%
    09:00 +5°C° 0.1 mm 2 mps 749 mmHg 87%
    10:00 +6°C° 0.1 mm 2 mps 749 mmHg 86%
    11:00 +6°C° 0 mm 2 mps 749 mmHg 84%
    12:00 +6°C° 0 mm 2 mps 749 mmHg 82%
    13:00 +7°C° 0 mm 2 mps 749 mmHg 81%
    14:00 +8°C° 0 mm 1 mps 750 mmHg 82%
    15:00 +7°C° 0 mm 1 mps 750 mmHg 82%
    16:00 +7°C° 0 mm 1 mps 750 mmHg 83%
    17:00 +7°C° 0 mm 1 mps 750 mmHg 83%
    18:00 +7°C° 0 mm 1 mps 751 mmHg 83%
    19:00 +7°C° 0 mm 1 mps 751 mmHg 84%
    20:00 +7°C° 0 mm 1 mps 751 mmHg 83%
    21:00 +7°C° 0 mm 1 mps 751 mmHg 83%
    22:00 +7°C° 0 mm 1 mps 752 mmHg 83%
    23:00 +7°C° 0 mm 1 mps 752 mmHg 83%

    22 November, Thursday

    Time Temperature Precipitation Wind Pressure Humidity
    00:00 +7°C° 0 mm 1 mps 752 mmHg 83%
    01:00 +7°C° 0 mm 1 mps 752 mmHg 83%
    02:00 +7°C° 0 mm 1 mps 752 mmHg 83%
    03:00 +6°C° 0 mm 1 mps 752 mmHg 83%
    04:00 +5°C° 0 mm 2 mps 752 mmHg 83%
    05:00 +5°C° 0 mm 2 mps 752 mmHg 84%
    06:00 +5°C° 0 mm 2 mps 753 mmHg 84%
    07:00 +5°C° 0 mm 2 mps 753 mmHg 84%
    08:00 +5°C° 0 mm 2 mps 753 mmHg 81%
    09:00 +7°C° 0 mm 1 mps 754 mmHg 78%
    10:00 +7°C° 0 mm 1 mps 754 mmHg 75%
    11:00 +8°C° 0 mm 1 mps 754 mmHg 73%
    12:00 +9°C° 0 mm 1 mps 754 mmHg 71%
    13:00 +9°C° 0 mm 1 mps 754 mmHg 70%
    14:00 +9°C° 0 mm 1 mps 754 mmHg 73%
    15:00 +8°C° 0 mm 1 mps 755 mmHg 76%
    16:00 +8°C° 0 mm 1 mps 755 mmHg 79%
    17:00 +7°C° 0 mm 1 mps 755 mmHg 81%
    18:00 +7°C° 0 mm 1 mps 755 mmHg 82%
    19:00 +7°C° 0 mm 1 mps 755 mmHg 84%
    20:00 +6°C° 0 mm 1 mps 756 mmHg 85%
    21:00 +6°C° 0 mm 1 mps 756 mmHg 86%
    22:00 +6°C° 0 mm 1 mps 756 mmHg 88%
    23:00 +5°C° 0 mm 0 mps 757 mmHg 87%

    23 November, Friday

    Time Temperature Precipitation Wind Pressure Humidity
    00:00 +5°C° 0 mm 0 mps 757 mmHg 86%
    01:00 +5°C° 0 mm 0 mps 757 mmHg 86%
    02:00 +5°C° 0 mm 0 mps 757 mmHg 86%
    03:00 +5°C° 0 mm 0 mps 757 mmHg 86%
    04:00 +5°C° 0 mm 0 mps 757 mmHg 86%
    05:00 +5°C° 0 mm 0 mps 758 mmHg 86%
    06:00 +5°C° 0 mm 0 mps 758 mmHg 87%
    07:00 +5°C° 0 mm 0 mps 758 mmHg 87%
    08:00 +6°C° 0 mm 0 mps 759 mmHg 83%
    09:00 +7°C° 0 mm 0 mps 759 mmHg 80%
    10:00 +8°C° 0 mm 1 mps 759 mmHg 76%
    11:00 +8°C° 0 mm 0 mps 759 mmHg 74%
    12:00 +8°C° 0 mm 0 mps 759 mmHg 71%
    13:00 +9°C° 0 mm 0 mps 759 mmHg 69%
    14:00 +9°C° 0 mm 1 mps 759 mmHg 72%
    15:00 +9°C° 0 mm 1 mps 759 mmHg 75%
    16:00 +8°C° 0 mm 1 mps 759 mmHg 78%
    17:00 +8°C° 0 mm 1 mps 759 mmHg 80%
    18:00 +7°C° 0 mm 1 mps 759 mmHg 82%
    19:00 +7°C° 0 mm 1 mps 759 mmHg 84%
    20:00 +7°C° 0 mm 1 mps 760 mmHg 86%
    21:00 +6°C° 0 mm 1 mps 760 mmHg 87%
    22:00 +6°C° 0 mm 1 mps 760 mmHg 88%
    23:00 +6°C° 0 mm 1 mps 760 mmHg 88%

    24 November, Saturday

    Time Temperature Precipitation Wind Pressure Humidity
    00:00 +5°C° 0 mm 1 mps 759 mmHg 89%
    01:00 +5°C° 0 mm 1 mps 759 mmHg 90%
    02:00 +5°C° 0 mm 1 mps 759 mmHg 91%
    03:00 +5°C° 0 mm 1 mps 759 mmHg 91%
    04:00 +5°C° 0 mm 1 mps 758 mmHg 92%
    05:00 +3°C° 0 mm 2 mps 758 mmHg 92%
    06:00 +3°C° 0 mm 2 mps 758 mmHg 92%
    07:00 +3°C° 0 mm 2 mps 758 mmHg 93%
    08:00 +4°C° 0 mm 2 mps 758 mmHg 87%
    09:00 +4°C° 0 mm 3 mps 758 mmHg 81%
    10:00 +5°C° 0 mm 3 mps 758 mmHg 76%
    11:00 +7°C° 0 mm 3 mps 757 mmHg 69%
    12:00 +6°C° 0 mm 4 mps 757 mmHg 62%
    13:00 +7°C° 0 mm 4 mps 756 mmHg 55%
    14:00 +6°C° 0 mm 4 mps 756 mmHg 57%
    15:00 +6°C° 0 mm 4 mps 755 mmHg 59%
    16:00 +5°C° 0 mm 4 mps 754 mmHg 61%
    17:00 +5°C° 0 mm 4 mps 754 mmHg 63%
    18:00 +5°C° 0 mm 4 mps 754 mmHg 65%
    19:00 +4°C° 0 mm 4 mps 754 mmHg 68%
    20:00 +4°C° 0 mm 4 mps 754 mmHg 68%
    21:00 +4°C° 0 mm 3 mps 753 mmHg 69%
    22:00 +3°C° 0 mm 3 mps 753 mmHg 70%
    23:00 +4°C° 0 mm 3 mps 753 mmHg 70%
    Show more